Location: Northam
(31.6525°S, 116.6655°E)
Time: 21:28:28
(UTC+08:00)

deb Explorer IX - All Passes

Search period start: 22 June 2021 00:00
Search period end: 02 July 2021 00:00
Orbit: 542 x 1096 km, 38.8° (Epoch: 21 June)

Date Brightness Start Highest point End Pass type
(mag) Time Alt. Az. Time Alt. Az. Time Alt. Az.
22 Jun - 00:14:49 10° W 00:20:37 30° NW 00:25:48 10° NNE night (unlit)
22 Jun - 14:53:56 10° N 14:59:00 25° NE 15:04:34 10° E daylight
22 Jun - 16:39:01 10° WNW 16:45:43 83° NNE 16:53:04 10° ESE daylight
22 Jun - 18:26:35 10° W 18:33:33 53° S 18:40:43 10° ESE visible
22 Jun - 20:14:43 10° WSW 20:21:51 51° S 20:28:44 10° E visible
22 Jun - 22:02:26 10° WSW 22:09:47 88° SSE 22:16:27 10° ENE visible
22 Jun - 23:50:41 10° W 23:56:38 31° NW 00:01:59 10° NNE night (unlit)
23 Jun - 14:30:07 10° N 14:35:00 25° NE 14:40:24 10° E daylight
23 Jun - 16:15:07 10° WNW 16:21:41 82° NNE 16:28:58 10° ESE daylight
23 Jun - 18:02:38 10° W 18:09:29 53° S 18:16:40 10° ESE visible
23 Jun - 19:50:41 10° WSW 19:57:46 51° S 20:04:46 10° E visible
23 Jun - 21:38:20 10° WSW 21:45:43 88° SSE 21:52:32 10° ENE visible
23 Jun - 23:26:33 10° W 23:32:37 31° NW 23:38:09 10° NNE night (unlit)
24 Jun - 14:06:19 10° N 14:11:02 24° NE 14:16:16 10° E daylight
24 Jun - 15:51:13 10° WNW 15:57:38 82° NNE 16:04:51 10° ESE daylight
24 Jun - 17:38:40 10° W 17:45:25 53° S 17:52:35 10° ESE visible
24 Jun - 19:26:39 10° WSW 19:33:42 51° S 19:40:45 10° E visible
24 Jun - 21:14:15 10° WSW 21:21:39 88° SSE 21:28:37 10° ENE visible
24 Jun - 23:02:25 10° W 23:08:36 32° NW 23:14:17 10° NNE night (unlit)
25 Jun - 13:42:32 10° N 13:47:03 23° NE 13:52:06 10° E daylight
25 Jun - 15:27:22 10° WNW 15:33:37 82° NNE 15:40:45 10° ESE daylight
25 Jun - 17:14:45 10° W 17:21:21 52° S 17:28:30 10° ESE daylight
25 Jun - 19:02:39 10° WSW 19:09:38 51° S 19:16:43 10° E visible
25 Jun - 20:50:11 10° WSW 20:57:35 87° SSE 21:04:39 10° ENE visible
25 Jun - 22:38:18 10° W 22:44:34 32° NW 22:50:24 10° NNE night (unlit)
26 Jun - 13:18:46 10° N 13:23:06 22° NE 13:27:56 10° E daylight
26 Jun - 15:03:32 10° WNW 15:09:36 82° NNE 15:16:37 10° ESE daylight
26 Jun - 16:50:50 10° W 16:57:18 52° S 17:04:23 10° ESE daylight
26 Jun - 18:38:40 10° WSW 18:45:33 51° S 18:52:40 10° E visible
26 Jun - 20:26:08 10° WSW 20:33:30 87° SSE 20:40:40 10° ENE visible
26 Jun - 22:14:10 10° W 22:20:32 33° NW 22:26:29 10° NNE visible
27 Jun - 12:55:02 10° N 12:59:09 22° NE 13:03:46 10° E daylight
27 Jun - 14:39:42 10° WNW 14:45:36 82° NNE 14:52:28 10° ESE daylight
27 Jun - 16:26:57 10° W 16:33:15 52° S 16:40:16 10° ESE daylight
27 Jun - 18:14:42 10° WSW 18:21:28 50° S 18:28:36 10° E visible
27 Jun - 20:02:05 10° WSW 20:09:25 87° SSE 20:16:39 10° ENE visible
27 Jun - 21:50:04 10° W 21:56:28 33° NW 22:02:33 10° NNE visible
28 Jun - 12:31:17 10° N 12:35:13 21° NE 12:39:36 10° E daylight
28 Jun - 14:15:53 10° WNW 14:21:36 81° NNE 14:28:20 10° ESE daylight
28 Jun - 16:03:05 10° W 16:09:13 51° S 16:16:08 10° ESE daylight
28 Jun - 17:50:45 10° WSW 17:57:24 50° S 18:04:30 10° E visible
28 Jun - 19:38:04 10° WSW 19:45:19 87° SSE 19:52:37 10° ENE visible
28 Jun - 21:25:59 10° W 21:32:24 33° NW 21:38:35 10° NNE visible
29 Jun - 12:07:34 10° N 12:11:17 20° NE 12:15:26 10° E daylight
29 Jun - 13:52:05 10° WNW 13:57:38 81° NNE 14:04:11 10° ESE daylight
29 Jun - 15:39:13 10° W 15:45:11 50° S 15:51:59 10° ESE daylight
29 Jun - 17:26:49 10° WSW 17:33:20 50° S 17:40:23 10° E daylight
29 Jun - 19:14:04 10° WSW 19:21:13 87° SSE 19:28:34 10° ENE visible
29 Jun - 21:01:55 10° W 21:08:19 34° NW 21:14:36 10° NNE visible
30 Jun - 11:43:51 10° N 11:47:22 19° NE 11:51:17 10° E daylight
30 Jun - 13:28:18 10° WNW 13:33:40 81° NNE 13:40:02 10° ESE daylight
30 Jun - 15:15:23 10° W 15:21:10 50° S 15:27:50 10° ESE daylight
30 Jun - 17:02:55 10° WSW 17:09:16 49° S 17:16:16 10° E daylight
30 Jun - 18:50:04 10° WSW 18:57:08 87° SSE 19:04:30 10° ENE visible
30 Jun - 20:37:52 10° W 20:44:14 34° NW 20:50:34 10° NNE visible
01 Jul - 11:20:08 10° N 11:23:28 18° NE 11:27:08 10° E daylight
01 Jul - 13:04:31 10° WNW 13:09:43 81° NNE 13:15:55 10° ESE daylight
01 Jul - 14:51:34 10° W 14:57:10 49° S 15:03:41 10° ESE daylight
01 Jul - 16:39:01 10° WSW 16:45:13 49° S 16:52:07 10° E daylight
01 Jul - 18:26:07 10° WSW 18:33:02 87° SSE 18:40:24 10° ENE visible
01 Jul - 20:13:49 10° W 20:20:10 34° NW 20:26:31 10° NNE visible
